Regional Weather Roundup
Issued by NWS

Home | Current Version | Previous Version | Text Only | Print | Product List | Glossary Off
Versions: 1 2 3 4 5 6 7 8 9 10 11 12 13 14 15 16 17 18 19 20 21 22 23 24 25 26 27 28 29 30 31 32 33 34 35 36 37 38 39 40 41 42 43 44 45 46 47 48 49 50

000
ASUS43 KDMX 271104
RWRIA

WEATHER ROUNDUP FOR IOWA
NATIONAL WEATHER SERVICE DES MOINES IA
  ISSUED BY NWS QUAD CITIES IA IL
500 AM CST TUE JAN 27 2015

NOTE: "FAIR" INDICATES FEW OR NO CLOUDS BELOW 12,000 FEET WITH NO
SIGNIFICANT WEATHER AND/OR OBSTRUCTIONS TO VISIBILITY.

* - THESE STATIONS ARE NOT NWS STATIONS...THUS NOT UNDER NWS
QUALITY CONTROL.  THEY ALSO DO NOT REPORT WEATHER SUCH
AS PRECIPITATION OR FOG.

IAZ001>003-012>014-020>022-031>034-043>046-271200-
   NORTHWEST IOWA

CITY           SKY/WX    TMP DP  RH WIND       PRES   REMARKS
CARROLL *      CLEAR     30  28  93 N5        30.07R WCI  25
CHEROKEE *     PTSUNNY   26  26 100 CALM      30.07R
DENNISON *     CLEAR     27  28 100 CALM      30.05S
LE MARS *      CLEAR     27  27 100 CALM      30.07R
ORANGE CITY *  CLEAR     32  28  86 CALM      30.05S
SHELDON *      CLOUDY    32  32 100 NE8       30.05S WCI  25
SIOUX CITY     FOG       28  26  92 CALM      30.07S VSB 1/2
SPENCER        PTCLDY    30  28  92 N6        30.07S WCI  24
STORM LAKE *   CLOUDY    32  32 100 N12       30.06S WCI  23
$$

IAZ055>058-069>071-079>083-090>094-271200-
   SOUTHWEST IOWA

CITY           SKY/WX    TMP DP  RH WIND       PRES   REMARKS
ATLANTIC *     CLEAR     27  27 100 CALM      30.07S
AUDUBON *      CLEAR     27  25  93 CALM      30.07S
CLARINDA *     CLEAR     23  25 100 CALM      30.10R
COUNCIL BLFS * CLEAR     36  36 100 CALM      30.06S
CRESTON *      CLEAR     28  28 100 NW7       30.07R WCI  21
HARLAN *       CLEAR     27  27 100 CALM      30.10S
LAMONI         CLEAR     31  29  92 NW5       30.06R WCI  26
RED OAK *      CLEAR     25  25 100 CALM      30.08S
SHENANDOAH *   CLEAR     27  27 100 CALM      30.10R
$$

IAZ047>049-059>061-072>074-084-271200-
   CENTRAL IOWA

CITY           SKY/WX    TMP DP  RH WIND       PRES   REMARKS
AMES           CLEAR     31  28  89 NW7       30.07R WCI  24
ANKENY *       CLEAR     32  30  93 NW7       30.08R WCI  26
BOONE *        CLEAR     30  30 100 NW7       30.06R WCI  23
CHARITON *     CLEAR     32  30  93 NW7       30.06R WCI  26
DES MOINES     CLEAR     33  29  85 N7        30.07R WCI  27
GRINNELL *     SUNNY     29  28  94 NW6       30.05R WCI  23
KNOXVILLE *    CLEAR     32  28  86 NW8       30.05R WCI  25
MARSHALLTOWN   CLEAR     29  27  92 NW7       30.05R WCI  22
NEWTON *       CLEAR     30  30 100 NW7       30.06S WCI  23
PELLA *        CLEAR     31  29  92 NW7       30.08R WCI  24
PERRY *          N/A     31  31  99 N6        30.07S WCI  25
$$

IAZ004>006-015-016-023>025-035-036-271200-
   NORTH CENTRAL IOWA

CITY           SKY/WX    TMP DP  RH WIND       PRES   REMARKS
ALGONA *       CLEAR     32  32 100 N5        30.07S WCI  27
CLARION *      CLEAR     32  32 100 NW7       30.07R WCI  26
ESTHERVILLE    CLEAR     28  27  96 N6        30.06S WCI  22
FORT DODGE *   CLEAR     30  27  86 N6        30.07S WCI  24
MASON CITY     CLEAR     26  25  96 NW8       30.07R WCI  18
FOREST CITY *  FAIR      30  28  93 W3        30.06S
WEBSTER CITY * CLEAR     32  32 100 NW8       30.06R WCI  25
IOWA FALLS *   FAIR      31  29  93 NW7       30.07R WCI  24
$$

IAZ007>011-017>019-026>030-037>042-050>054-066-271200-
   NORTHEAST IOWA

CITY           SKY/WX    TMP DP  RH WIND       PRES   REMARKS
CEDAR RAPIDS   PTCLDY    27  27 100 N8        30.03R WCI  19
CHARLES CITY * CLOUDY    34  34 100 N7        30.05R WCI  28
CLINTON *      CLOUDY    30  27  86 N14       30.05R WCI  20
DECORAH *      CLOUDY    30  28  93 NE5       30.04R WCI  25
DUBUQUE        CLOUDY    30  26  85 N14G23    30.02R WCI  19
MONTICELLO *   CLOUDY    34  30  86 N14G20    30.03R WCI  24
OELWEIN *      CLOUDY    34  32  93 NE12      30.04R WCI  25
WATERLOO       CLOUDY    33  30  88 NW6       30.05R WCI  28
$$

IAZ064-065-067-068-078-271200-
   EAST CENTRAL IOWA

CITY           SKY/WX    TMP DP  RH WIND       PRES   REMARKS
DAVENPORT      CLOUDY    33  28  81 N10       30.03R WCI  25
IOWA CITY      CLOUDY    33  30  88 N6        30.05R WCI  28
MT. PLEASANT * CLOUDY    33  31  90 NW7       30.04R WCI  27
MUSCATINE *    CLOUDY    36  32  87 NW8       30.04R WCI  29
QUAD CITIES    CLOUDY    34  29  82 N9        30.02R WCI  27
$$

IAZ062-063-075>077-085>089-095>099-271200-
   SOUTHEAST IOWA

CITY           SKY/WX    TMP DP  RH WIND       PRES   REMARKS
BURLINGTON     MOCLDY    34  32  92 NW8       30.02R WCI  27
FAIRFIELD *    MOCLDY    30  28  93 N8        30.05R WCI  23
FORT MADISON * CLOUDY    36  34  93 NW6       30.04R WCI  31
KEOKUK *       CLOUDY    36  32  87 NW6       30.03R WCI  31
OTTUMWA        CLEAR     31  28  89 NW10      30.05R WCI  22
WASHINGTON *   CLOUDY    34  34 100 NW7       30.04R WCI  28
$$

ABBREVIATIONS USED IN REMARKS
   TC - TEMPERATURES IN CELSIUS
  WCI - WIND CHILL INDEX
   HX - HEAT INDEX
  VSB - VISIBILITY
$$


USA.gov is the U.S. government's official web portal to all federal, state and local government web resources and services.